OBJECT V, 64547

Orbit data source: Space-Track

You're viewing an Uncataloged Satellite

Recently launched and/or uncataloged satellites may have evolving metadata. Metadata may include but not limited to: Owner, Maufacturer, Bus, Motor, and Mission.

OBJECT V, 64547 is a satellite in SSO that was launched on Mon, 23 Jun 2025 UTC via an FALCON 9 launch vehicle from the Air Force Western Test Range (AFWTR). Unknown objects in Earth's orbit typically refer to objects detected orbiting the Earth but have not yet been identified or cataloged. These objects could be anything from previously untracked satellites, spent rocket stages, debris from satellite collisions, or even natural meteoroids temporarily captured by Earth's gravity.

Loading next visibility...
Identifier
64547, 2025-135V
Orbit
SSO
Country
Flag of TBDTBD
Related business
None
Manufacturer
Unknown
Mission
Operational Commercial Imaging
Bus & Motor
Unknown
Mass
Unknown
Launch date (UTC)
2025-06-23 (10 months ago)
Launch vehicle
FALCON 9
Launch site
Air Force Western Test Range (AFWTR)
Object type
Unknown
Shape & HBR
Box, 0.1 m
Radar Cross Section
0.035 m², Small (<0.1 m²)

Expand to show TLE details & history
Last TLE update: 10 hours ago

TLE from 10 hours ago
0 OBJECT V
1 64547U 25135V   26104.84812795  .00004678  00000-0  19536-3 0  9991
2 64547  97.4544 220.8994 0002168  98.0635 262.0848 15.24126718 45278
Epoch: 2026-04-14T20:21Z
TLE epoch observation values (Epoch: 2026-04-14T20:21:18.254Z)
Latitude
-0.00008°
Longitude
72.55486°
Altitude
496.709 km
Speed
7.616 km/s
True Right ascension
14h 43m 35s
True Declination
0° 00' 00"
Sunlit
Object was in full shadow at epoch
Visualization orbit readout
Latitude
Unknown
Longitude
Unknown
Altitude
Unknown
Speed
Unknown
Apparent Right ascension
Unknown
Apparent Declination
Unknown
Sunlit
N/A
Visualization observer readout
Local Sidereal Time
12:25:51
Azimuth
Unknown
Elevation
Unknown
Doppler factor
Unknown
Orbital elements
Apogee altitude
491.86 km
Perigee altitude
488.882 km
Semi-major axis
6,868.508 km
Eccentricity
0.00022
Inclination
97.4544°
RAAN
220.8994°
Arg. of periapsis
98.0635°
True anomaly
262.06019°
Mean anomaly
262.0848°
Eccentric anomaly
262.0725°
Mean motion
3.81285 °/min
Orbital period
94.42 mins
BSTAR
0.00019536
Loading maneuver chart data...
Computing Atmospheric mass density...
Loading historical data...
Loading historical data...
Loading historical data...
Loading historical data...
Loading historical data...
Loading historical data...
Loading historical data...

Documentation

Showing up to 5 results
|